| time (UTC) | temp F | wind direction | speed knots | gust knots | rain 1hr in | rain 24hr in | rain mn in | humidity % | barometer mb |
| 20260504215002 | 54 | 84 | 0.9 | 1.7 | 0.00 | 0.51 | 0.51 | 95 | 1020.0 |
| 20260504215000 | 54 | 84 | 0.0 | 1.7 | 0.00 | 0.51 | 0.51 | 95 | 1015.4 |
| 20260504214502 | 54 | 91 | 0.9 | 1.7 | 0.00 | 0.51 | 0.51 | 95 | 1020.1 |
| 20260504214003 | 54 | 68 | 0.0 | 2.6 | 0.00 | 0.51 | 0.51 | 95 | 1015.5 |
| 20260504213502 | 54 | 60 | 0.9 | 2.6 | 0.00 | 0.51 | 0.51 | 94 | 1015.5 |
| 20260504213003 | 54 | 82 | 0.9 | 2.6 | 0.02 | 0.51 | 0.51 | 94 | 1020.0 |
| 20260504212502 | 54 | 78 | 0.9 | 3.5 | 0.04 | 0.51 | 0.51 | 94 | 1020.1 |
| 20260504212002 | 54 | 97 | 0.9 | 3.5 | 0.07 | 0.51 | 0.51 | 94 | 1015.6 |
| 20260504211503 | 54 | 79 | 0.9 | 1.7 | 0.07 | 0.51 | 0.51 | 94 | 1020.1 |
| 20260504211002 | 54 | 70 | 0.0 | 2.6 | 0.08 | 0.51 | 0.51 | 94 | 1015.5 |
| 20260504210504 | 55 | 121 | 0.0 | 1.7 | 0.08 | 0.51 | 0.51 | 94 | 1020.1 |
| 20260504210501 | 55 | 182 | 0.0 | 1.7 | 0.08 | 0.51 | 0.51 | 94 | 1015.6 |
| 20260504210005 | 54 | 124 | 0.9 | 2.6 | 0.11 | 0.51 | 0.51 | 94 | 1020.1 |
| 20260504210003 | 54 | 124 | 0.0 | 2.6 | 0.11 | 0.51 | 0.51 | 94 | 1015.5 |
| 20260504205503 | 54 | 90 | 0.0 | 2.6 | 0.18 | 0.51 | 0.51 | 94 | 1015.5 |
| 20260504205002 | 54 | 128 | 0.9 | 2.6 | 0.18 | 0.51 | 0.51 | 94 | 1015.6 |
| 20260504204502 | 54 | 179 | 0.0 | 2.6 | 0.18 | 0.51 | 0.51 | 94 | 1015.5 |
| 20260504204002 | 55 | 153 | 0.9 | 3.5 | 0.18 | 0.51 | 0.51 | 94 | 1015.5 |
| 20260504203503 | 55 | 188 | 1.7 | 3.5 | 0.18 | 0.51 | 0.51 | 94 | 1015.4 |
| 20260504203002 | 55 | 227 | 0.9 | 2.6 | 0.16 | 0.49 | 0.49 | 93 | 1015.4 |
| 20260504202501 | 55 | 233 | 0.9 | 3.5 | 0.13 | 0.46 | 0.46 | 93 | 1019.9 |
| 20260504202103 | 55 | 217 | 0.9 | 3.5 | 0.11 | 0.44 | 0.44 | 93 | 1015.3 |
| 20260504202002 | 55 | 196 | 0.9 | 3.5 | 0.11 | 0.44 | 0.44 | 93 | 1019.9 |
| 20260504201503 | 55 | 246 | 0.0 | 2.6 | 0.11 | 0.44 | 0.44 | 93 | 1019.8 |
| 20260504201501 | 55 | 246 | 0.0 | 2.6 | 0.11 | 0.44 | 0.44 | 93 | 1015.2 |
| 20260504201005 | 55 | 134 | 0.9 | 2.6 | 0.10 | 0.43 | 0.43 | 91 | 1019.8 |
| 20260504201001 | 55 | 134 | 0.0 | 2.6 | 0.10 | 0.43 | 0.43 | 91 | 1015.2 |
| 20260504200601 | 56 | 249 | 0.9 | 4.3 | 0.10 | 0.43 | 0.43 | 90 | 1015.1 |
| 20260504200109 | 56 | 238 | 0.9 | 5.2 | 0.07 | 0.40 | 0.40 | 85 | 1015.2 |
| 20260504200003 | 57 | 234 | 1.7 | 5.2 | 0.05 | 0.38 | 0.38 | 85 | 1015.2 |
| 20260504195600 | 57 | 285 | 2.6 | 5.2 | 0.00 | 0.36 | 0.33 | 85 | 1015.1 |
| 20260504195502 | 57 | 281 | 2.6 | 5.2 | 0.00 | 0.36 | 0.33 | 84 | 1019.7 |
| 20260504195002 | 57 | 250 | 1.7 | 5.2 | 0.00 | 0.36 | 0.33 | 85 | 1015.0 |
| 20260504194614 | 57 | 290 | 0.9 | 5.2 | 0.00 | 0.36 | 0.33 | 85 | 1015.0 |
| 20260504194503 | 57 | 248 | 0.9 | 5.2 | 0.00 | 0.36 | 0.33 | 85 | 1019.5 |
| 20260504194100 | 57 | 242 | 0.0 | 6.1 | 0.00 | 0.36 | 0.33 | 85 | 1014.9 |
| 20260504193600 | 57 | 316 | 1.7 | 6.1 | 0.00 | 0.36 | 0.33 | 85 | 1014.9 |
| 20260504193502 | 57 | 270 | 2.6 | 6.1 | 0.00 | 0.36 | 0.33 | 85 | 1019.4 |
| 20260504193118 | 57 | 241 | 0.9 | 6.1 | 0.00 | 0.36 | 0.33 | 84 | 1014.8 |
| 20260504193001 | 57 | 262 | 3.5 | 7.8 | 0.00 | 0.36 | 0.33 | 84 | 1019.3 |
| 20260504192600 | 57 | 307 | 2.6 | 7.8 | 0.00 | 0.36 | 0.33 | 84 | 1014.8 |
| 20260504192104 | 57 | 292 | 2.6 | 7.8 | 0.00 | 0.36 | 0.33 | 83 | 1014.7 |
| 20260504192002 | 57 | 284 | 3.5 | 7.8 | 0.00 | 0.36 | 0.33 | 83 | 1019.3 |
| 20260504191608 | 58 | 300 | 2.6 | 7.8 | 0.00 | 0.36 | 0.33 | 82 | 1014.7 |
| 20260504191100 | 58 | 37 | 3.5 | 7.8 | 0.00 | 0.36 | 0.33 | 82 | 1014.6 |
| 20260504191004 | 58 | 319 | 3.5 | 7.8 | 0.00 | 0.36 | 0.33 | 82 | 1019.1 |
| 20260504190600 | 59 | 261 | 3.5 | 7.0 | 0.00 | 0.36 | 0.33 | 81 | 1014.6 |
| 20260504190501 | 59 | 315 | 3.5 | 6.1 | 0.00 | 0.36 | 0.33 | 80 | 1019.2 |
| 20260504190117 | 59 | 264 | 2.6 | 6.1 | 0.00 | 0.36 | 0.33 | 80 | 1014.6 |
| 20260504190005 | 59 | 279 | 2.6 | 6.1 | 0.00 | 0.36 | 0.33 | 80 | 1019.2 |
| 20260504190003 | 59 | 279 | 2.6 | 6.1 | 0.00 | 0.36 | 0.33 | 80 | 1014.6 |
| 20260504185600 | 59 | 296 | 2.6 | 5.2 | 0.00 | 0.38 | 0.33 | 80 | 1014.6 |
| 20260504185501 | 59 | 257 | 2.6 | 5.2 | 0.00 | 0.38 | 0.33 | 80 | 1019.1 |
| 20260504185100 | 59 | 279 | 2.6 | 5.2 | 0.00 | 0.38 | 0.33 | 79 | 1014.5 |
| 20260504185001 | 59 | 294 | 2.6 | 5.2 | 0.00 | 0.38 | 0.33 | 79 | 1019.0 |
| 20260504184636 | 59 | 282 | 1.7 | 5.2 | 0.00 | 0.38 | 0.33 | 79 | 1014.5 |
| 20260504184503 | 59 | 280 | 2.6 | 5.2 | 0.00 | 0.38 | 0.33 | 79 | 1019.0 |
| 20260504184501 | 59 | 280 | 2.6 | 5.2 | 0.00 | 0.38 | 0.33 | 79 | 1014.5 |
| 20260504184100 | 59 | 276 | 1.7 | 7.0 | 0.00 | 0.38 | 0.33 | 79 | 1014.5 |
| 20260504184001 | 59 | 268 | 3.5 | 7.0 | 0.00 | 0.38 | 0.33 | 79 | 1019.0 |
| 20260504183601 | 59 | 266 | 2.6 | 8.7 | 0.00 | 0.38 | 0.33 | 79 | 1014.5 |
| 20260504183501 | 59 | 278 | 4.3 | 8.7 | 0.00 | 0.38 | 0.33 | 78 | 1019.0 |
| 20260504183100 | 59 | 295 | 4.3 | 8.7 | 0.00 | 0.38 | 0.33 | 79 | 1014.5 |
| 20260504183001 | 59 | 297 | 4.3 | 8.7 | 0.00 | 0.38 | 0.33 | 79 | 1019.0 |
| 20260504182600 | 59 | 271 | 3.5 | 8.7 | 0.00 | 0.38 | 0.33 | 79 | 1014.5 |
| 20260504182502 | 59 | 270 | 3.5 | 8.7 | 0.00 | 0.38 | 0.33 | 79 | 1019.0 |
| 20260504182100 | 59 | 252 | 4.3 | 7.0 | 0.00 | 0.38 | 0.33 | 79 | 1014.4 |
| 20260504181600 | 59 | 305 | 2.6 | 7.0 | 0.00 | 0.38 | 0.33 | 79 | 1014.4 |
| 20260504181501 | 59 | 305 | 3.5 | 7.0 | 0.00 | 0.38 | 0.33 | 79 | 1019.0 |
| 20260504181100 | 59 | 268 | 3.5 | 7.0 | 0.00 | 0.38 | 0.33 | 80 | 1014.4 |
| 20260504181002 | 59 | 289 | 3.5 | 7.0 | 0.00 | 0.38 | 0.33 | 80 | 1019.0 |
| 20260504180604 | 59 | 153 | 2.6 | 7.0 | 0.00 | 0.38 | 0.33 | 80 | 1014.4 |
| 20260504180101 | 59 | 316 | 2.6 | 6.1 | 0.00 | 0.38 | 0.33 | 80 | 1014.4 |
| 20260504180006 | 59 | 244 | 2.6 | 6.1 | 0.00 | 0.38 | 0.33 | 80 | 1018.9 |
| 20260504180003 | 59 | 244 | 2.6 | 6.1 | 0.00 | 0.38 | 0.33 | 80 | 1014.4 |
| 20260504175600 | 59 | 300 | 1.7 | 7.8 | 0.00 | 0.38 | 0.33 | 80 | 1014.4 |
| 20260504175501 | 59 | 276 | 3.5 | 7.8 | 0.00 | 0.38 | 0.33 | 81 | 1019.0 |
| 20260504175100 | 59 | 264 | 3.5 | 7.8 | 0.00 | 0.38 | 0.33 | 80 | 1014.4 |
| 20260504175001 | 59 | 274 | 3.5 | 7.8 | 0.00 | 0.38 | 0.33 | 80 | 1018.9 |
| 20260504174600 | 59 | 295 | 2.6 | 6.1 | 0.00 | 0.38 | 0.33 | 81 | 1014.4 |
| 20260504174503 | 59 | 226 | 3.5 | 6.1 | 0.00 | 0.38 | 0.33 | 81 | 1018.9 |
| 20260504174100 | 59 | 258 | 2.6 | 7.0 | 0.00 | 0.38 | 0.33 | 81 | 1014.4 |
| 20260504174001 | 59 | 259 | 2.6 | 7.0 | 0.00 | 0.38 | 0.33 | 81 | 1019.0 |
| 20260504173504 | 59 | 252 | 2.6 | 7.0 | 0.00 | 0.38 | 0.33 | 82 | 1019.1 |
| 20260504173502 | 59 | 252 | 1.7 | 7.0 | 0.00 | 0.38 | 0.33 | 82 | 1014.6 |
| 20260504173101 | 59 | 262 | 3.5 | 7.0 | 0.00 | 0.38 | 0.33 | 82 | 1014.6 |
| 20260504172614 | 59 | 282 | 3.5 | 7.8 | 0.00 | 0.38 | 0.33 | 82 | 1019.1 |
| 20260504172151 | 59 | 284 | 2.6 | 7.8 | 0.00 | 0.38 | 0.33 | 82 | 1014.5 |
| 20260504172131 | 59 | 270 | 2.6 | 7.8 | 0.00 | 0.38 | 0.33 | 82 | 1019.0 |
| 20260504171615 | 59 | 291 | 1.7 | 5.2 | 0.00 | 0.38 | 0.33 | 81 | 1014.4 |
| 20260504171027 | 59 | 281 | 2.6 | 5.2 | 0.00 | 0.38 | 0.33 | 80 | 1019.0 |
| 20260504171007 | 59 | 277 | 1.7 | 5.2 | 0.00 | 0.38 | 0.33 | 80 | 1014.4 |
| 20260504170605 | 59 | 303 | 2.6 | 5.2 | 0.00 | 0.38 | 0.33 | 81 | 1014.5 |
| 20260504160106 | 59 | 275 | 1.7 | 7.0 | 0.00 | 0.38 | 0.33 | 80 | 1014.4 |
| 20260504151059 | 59 | 286 | 2.6 | 9.6 | 0.00 | 0.38 | 0.33 | 82 | 1014.3 |
| 20260504150600 | 58 | 271 | 3.5 | 7.8 | 0.00 | 0.38 | 0.33 | 81 | 1014.3 |
| 20260504150501 | 58 | 283 | 4.3 | 8.7 | 0.00 | 0.38 | 0.33 | 82 | 1018.9 |
| 20260504141101 | 57 | 328 | 2.6 | 7.0 | 0.01 | 0.38 | 0.33 | 93 | 1014.5 |
| 20260504141001 | 57 | 281 | 2.6 | 7.0 | 0.01 | 0.38 | 0.33 | 94 | 1019.0 |
| 20260504140601 | 56 | 307 | 2.6 | 7.0 | 0.01 | 0.38 | 0.33 | 93 | 1014.4 |
| 20260504140500 | 56 | 279 | 2.6 | 7.0 | 0.01 | 0.38 | 0.33 | 94 | 1018.9 |
| 20260504140112 | 56 | 288 | 2.6 | 7.0 | 0.01 | 0.38 | 0.33 | 93 | 1014.4 |
| 20260504130604 | 55 | 247 | 1.7 | 6.1 | 0.05 | 0.39 | 0.32 | 94 | 1014.8 |
| 20260504130501 | 55 | 219 | 2.6 | 6.1 | 0.06 | 0.39 | 0.32 | 94 | 1019.4 |
| 20260504120121 | 56 | 288 | 3.5 | 10.4 | 0.04 | 0.32 | 0.26 | 88 | 1014.8 |
| 20260504110600 | 57 | 233 | 5.2 | 10.4 | 0.00 | 0.28 | 0.22 | 87 | 1014.7 |
| 20260504110112 | 57 | 219 | 5.2 | 10.4 | 0.00 | 0.28 | 0.22 | 87 | 1014.7 |
| 20260504100600 | 57 | 276 | 4.3 | 8.7 | 0.07 | 0.28 | 0.22 | 90 | 1014.4 |
| 20260504100501 | 57 | 309 | 3.5 | 8.7 | 0.08 | 0.28 | 0.22 | 90 | 1019.0 |
| 20260504100113 | 57 | 277 | 3.5 | 8.7 | 0.09 | 0.28 | 0.22 | 90 | 1014.5 |
| 20260504082002 | 57 | 268 | 4.3 | 8.7 | 0.02 | 0.17 | 0.10 | 86 | 1018.3 |
| 20260504081502 | 57 | 261 | 3.5 | 8.7 | 0.02 | 0.15 | 0.09 | 86 | 1018.4 |
| 20260504081003 | 57 | 290 | 2.6 | 8.7 | 0.02 | 0.15 | 0.09 | 86 | 1018.7 |
| 20260504080501 | 57 | 276 | 1.7 | 8.7 | 0.02 | 0.15 | 0.09 | 87 | 1014.1 |
| 20260504050502 | 58 | 261 | 0.9 | 2.6 | 0.00 | 0.07 | 0.01 | 86 | 1017.2 |
| 20260504050005 | 58 | 271 | 0.9 | 3.5 | 0.00 | 0.07 | 0.01 | 86 | 1017.2 |
| 20260504050002 | 58 | 271 | 0.0 | 3.5 | 0.00 | 0.07 | 0.01 | 86 | 1012.7 |
| 20260504045502 | 58 | 235 | 0.0 | 3.5 | 0.00 | 0.07 | 0.01 | 85 | 1017.1 |
| 20260504045004 | 58 | 247 | 0.0 | 2.6 | 0.00 | 0.07 | 0.01 | 86 | 1017.0 |
| 20260504045001 | 58 | 247 | 0.0 | 2.6 | 0.00 | 0.07 | 0.01 | 86 | 1012.5 |
| 20260504044502 | 58 | 294 | 0.9 | 2.6 | 0.00 | 0.07 | 0.01 | 85 | 1017.1 |
| 20260504044002 | 58 | 250 | 0.9 | 2.6 | 0.00 | 0.07 | 0.01 | 85 | 1017.1 |
| 20260504043502 | 58 | 160 | 0.9 | 2.6 | 0.00 | 0.07 | 0.01 | 85 | 1017.0 |
| 20260504043005 | 58 | 269 | 0.9 | 4.3 | 0.00 | 0.07 | 0.01 | 85 | 1017.0 |
| 20260504043002 | 58 | 269 | 0.9 | 4.3 | 0.00 | 0.07 | 0.01 | 85 | 1012.5 |
| 20260504042502 | 58 | 220 | 1.7 | 4.3 | 0.00 | 0.07 | 0.01 | 86 | 1017.1 |
| 20260504042500 | 58 | 220 | 0.0 | 4.3 | 0.00 | 0.07 | 0.01 | 86 | 1012.6 |
| 20260504042001 | 58 | 243 | 1.7 | 4.3 | 0.00 | 0.07 | 0.01 | 86 | 1012.6 |
| 20260504041503 | 58 | 229 | 0.9 | 4.3 | 0.00 | 0.07 | 0.01 | 86 | 1012.7 |
| 20260504041002 | 58 | 221 | 1.7 | 7.0 | 0.00 | 0.07 | 0.01 | 86 | 1017.2 |
| 20260504040501 | 58 | 254 | 0.9 | 7.0 | 0.00 | 0.07 | 0.01 | 86 | 1012.7 |
| 20260504040006 | 58 | 270 | 1.7 | 4.3 | 0.00 | 0.07 | 0.01 | 87 | 1012.7 |
| 20260504035502 | 58 | 278 | 1.7 | 3.5 | 0.00 | 0.07 | 0.01 | 87 | 1017.3 |
| 20260504035002 | 58 | 236 | 1.7 | 3.5 | 0.01 | 0.07 | 0.01 | 87 | 1017.3 |
| 20260504034501 | 58 | 251 | 0.9 | 4.3 | 0.01 | 0.07 | 0.01 | 87 | 1012.7 |
| 20260504034002 | 58 | 262 | 1.7 | 5.2 | 0.01 | 0.07 | 0.01 | 87 | 1017.2 |
| 20260504033501 | 58 | 250 | 1.7 | 5.2 | 0.01 | 0.07 | 0.01 | 87 | 1017.3 |
| 20260504033003 | 58 | 204 | 1.7 | 4.3 | 0.01 | 0.07 | 0.01 | 88 | 1017.3 |
| 20260504032502 | 57 | 279 | 1.7 | 4.3 | 0.01 | 0.07 | 0.01 | 88 | 1017.4 |
| 20260504032004 | 57 | 300 | 1.7 | 4.3 | 0.01 | 0.07 | 0.01 | 88 | 1017.4 |
| 20260504032002 | 57 | 300 | 2.6 | 4.3 | 0.01 | 0.07 | 0.01 | 88 | 1012.9 |
| 20260504031504 | 58 | 240 | 1.7 | 4.3 | 0.01 | 0.07 | 0.01 | 87 | 1013.0 |
| 20260504031502 | 58 | 240 | 1.7 | 4.3 | 0.01 | 0.07 | 0.01 | 87 | 1017.5 |
| 20260504031005 | 58 | 262 | 0.9 | 4.3 | 0.01 | 0.07 | 0.01 | 87 | 1013.0 |
| 20260504031002 | 58 | 262 | 1.7 | 4.3 | 0.01 | 0.07 | 0.01 | 87 | 1017.5 |
| 20260504030501 | 58 | 276 | 1.7 | 3.5 | 0.01 | 0.07 | 0.01 | 86 | 1017.6 |
| 20260504030006 | 58 | 267 | 1.7 | 4.3 | 0.01 | 0.07 | 0.01 | 86 | 1017.5 |
| 20260504030003 | 58 | 267 | 0.9 | 4.3 | 0.01 | 0.07 | 0.01 | 86 | 1013.0 |
| 20260504025501 | 58 | 274 | 1.7 | 6.1 | 0.01 | 0.07 | 0.01 | 85 | 1013.0 |
| 20260504025002 | 58 | 250 | 2.6 | 6.1 | 0.00 | 0.06 | 0.00 | 85 | 1013.0 |
| 20260504024504 | 59 | 231 | 2.6 | 7.0 | 0.00 | 0.06 | 0.00 | 83 | 1013.0 |
| 20260504024005 | 59 | 293 | 1.7 | 7.0 | 0.00 | 0.06 | 0.00 | 83 | 1013.0 |
| 20260504023502 | 59 | 280 | 0.9 | 1.7 | 0.00 | 0.06 | 0.00 | 82 | 1017.5 |
| 20260504023003 | 59 | 257 | 0.9 | 2.6 | 0.00 | 0.06 | 0.00 | 83 | 1017.6 |
| 20260504023001 | 59 | 257 | 0.0 | 2.6 | 0.00 | 0.06 | 0.00 | 83 | 1013.0 |
| 20260504022504 | 59 | 286 | 0.9 | 2.6 | 0.00 | 0.06 | 0.00 | 82 | 1017.6 |
| 20260504022501 | 59 | 286 | 0.9 | 2.6 | 0.00 | 0.06 | 0.00 | 82 | 1013.1 |
| 20260504022003 | 59 | 284 | 0.0 | 1.7 | 0.00 | 0.06 | 0.00 | 82 | 1013.0 |
| 20260504021502 | 59 | 214 | 0.0 | 1.7 | 0.00 | 0.06 | 0.00 | 82 | 1017.5 |
| 20260504021002 | 59 | 193 | 0.9 | 1.7 | 0.00 | 0.06 | 0.00 | 82 | 1017.5 |
| 20260504020502 | 59 | 224 | 0.9 | 2.6 | 0.00 | 0.06 | 0.00 | 82 | 1017.4 |
| 20260504020006 | 59 | 135 | 0.9 | 2.6 | 0.00 | 0.06 | 0.00 | 82 | 1017.4 |
| 20260504020004 | 59 | 135 | 0.9 | 2.6 | 0.00 | 0.06 | 0.00 | 82 | 1012.9 |
| 20260504015502 | 59 | 203 | 0.0 | 2.6 | 0.00 | 0.06 | 0.00 | 82 | 1017.4 |
| 20260504015002 | 59 | 120 | 0.0 | 1.7 | 0.00 | 0.06 | 0.00 | 82 | 1017.4 |
| 20260504014504 | 59 | 277 | 0.0 | 2.6 | 0.00 | 0.06 | 0.00 | 82 | 1017.4 |
| 20260504014501 | 59 | 277 | 0.0 | 2.6 | 0.00 | 0.06 | 0.00 | 82 | 1012.9 |
| 20260504014002 | 58 | 233 | 0.9 | 2.6 | 0.00 | 0.06 | 0.00 | 82 | 1017.4 |
| 20260504013502 | 59 | 245 | 0.9 | 5.2 | 0.00 | 0.06 | 0.00 | 82 | 1017.5 |
| 20260504013115 | 59 | 236 | 1.7 | 5.2 | 0.00 | 0.06 | 0.00 | 82 | 1013.0 |
| 20260504013005 | 59 | 253 | 1.7 | 5.2 | 0.00 | 0.06 | 0.00 | 81 | 1017.5 |
| 20260504012601 | 59 | 268 | 1.7 | 5.2 | 0.00 | 0.06 | 0.00 | 81 | 1012.9 |
| 20260504012504 | 59 | 245 | 1.7 | 5.2 | 0.00 | 0.06 | 0.00 | 81 | 1017.5 |
| 20260504012502 | 59 | 245 | 1.7 | 5.2 | 0.00 | 0.06 | 0.00 | 81 | 1012.9 |
| 20260504012103 | 59 | 284 | 0.9 | 6.1 | 0.00 | 0.06 | 0.00 | 82 | 1012.9 |
| 20260504012001 | 59 | 231 | 2.6 | 6.1 | 0.00 | 0.06 | 0.00 | 82 | 1017.5 |
| 20260504011502 | 59 | 260 | 1.7 | 6.1 | 0.00 | 0.06 | 0.00 | 82 | 1017.6 |
| 20260504011102 | 58 | 250 | 1.7 | 4.3 | 0.00 | 0.06 | 0.00 | 83 | 1013.1 |
| 20260504011001 | 58 | 249 | 0.9 | 4.3 | 0.00 | 0.06 | 0.00 | 83 | 1017.6 |
| 20260504010600 | 58 | 249 | 0.9 | 4.3 | 0.00 | 0.06 | 0.00 | 83 | 1013.0 |
| 20260504010504 | 58 | 247 | 1.7 | 4.3 | 0.00 | 0.06 | 0.00 | 83 | 1017.5 |
| 20260504010502 | 58 | 247 | 1.7 | 4.3 | 0.00 | 0.06 | 0.00 | 83 | 1013.0 |
| 20260504010104 | 58 | 202 | 0.0 | 5.2 | 0.00 | 0.06 | 0.00 | 84 | 1012.9 |
| 20260504010002 | 58 | 108 | 0.9 | 5.2 | 0.00 | 0.06 | 0.00 | 84 | 1012.9 |
| 20260504005600 | 58 | 267 | 1.7 | 5.2 | 0.00 | 0.06 | 0.00 | 84 | 1012.8 |
| 20260504005502 | 58 | 276 | 1.7 | 5.2 | 0.00 | 0.06 | 0.00 | 85 | 1017.4 |
| 20260504005100 | 58 | 259 | 0.9 | 4.3 | 0.00 | 0.06 | 0.00 | 85 | 1012.9 |
| 20260504005001 | 58 | 270 | 1.7 | 4.3 | 0.00 | 0.06 | 0.00 | 85 | 1017.4 |
| 20260504004622 | 58 | 291 | 0.9 | 4.3 | 0.00 | 0.06 | 0.00 | 85 | 1012.8 |
| 20260504004500 | 58 | 295 | 1.7 | 4.3 | 0.00 | 0.06 | 0.00 | 85 | 1017.4 |
| 20260504004059 | 58 | 267 | 1.7 | 4.3 | 0.00 | 0.06 | 0.00 | 85 | 1012.8 |
| 20260504004001 | 58 | 300 | 1.7 | 4.3 | 0.00 | 0.06 | 0.00 | 85 | 1017.2 |
| 20260504003559 | 58 | 279 | 0.9 | 7.0 | 0.00 | 0.06 | 0.00 | 86 | 1012.7 |
| 20260504003502 | 58 | 285 | 2.6 | 7.0 | 0.00 | 0.06 | 0.00 | 86 | 1017.2 |
| 20260504003103 | 58 | 267 | 2.6 | 7.0 | 0.00 | 0.06 | 0.00 | 86 | 1012.6 |
| 20260504003001 | 58 | 259 | 2.6 | 7.0 | 0.00 | 0.06 | 0.00 | 86 | 1017.3 |
| 20260504002601 | 58 | 248 | 2.6 | 7.0 | 0.00 | 0.06 | 0.00 | 87 | 1012.6 |
| 20260504002501 | 58 | 266 | 3.5 | 7.0 | 0.00 | 0.06 | 0.00 | 87 | 1017.1 |
| 20260504002104 | 58 | 229 | 3.5 | 10.4 | 0.00 | 0.06 | 0.00 | 86 | 1012.5 |
| 20260504002003 | 59 | 255 | 3.5 | 10.4 | 0.00 | 0.06 | 0.00 | 86 | 1017.0 |
| 20260504001607 | 58 | 263 | 3.5 | 10.4 | 0.00 | 0.06 | 0.00 | 86 | 1012.6 |
| 20260504001501 | 58 | 259 | 3.5 | 10.4 | 0.00 | 0.06 | 0.00 | 86 | 1017.1 |
| 20260504001102 | 59 | 293 | 1.7 | 7.0 | 0.00 | 0.06 | 0.00 | 86 | 1012.6 |
| 20260504001003 | 58 | 272 | 2.6 | 7.0 | 0.00 | 0.06 | 0.00 | 86 | 1017.1 |
| 20260504000600 | 59 | 257 | 2.6 | 6.1 | 0.00 | 0.06 | 0.00 | 86 | 1012.7 |
| 20260504000501 | 59 | 229 | 2.6 | 6.1 | 0.00 | 0.06 | 0.00 | 86 | 1017.2 |
| 20260504000105 | 59 | 306 | 1.7 | 5.2 | 0.00 | 0.06 | 0.00 | 86 | 1012.7 |
| 20260504000006 | 59 | 282 | 2.6 | 8.7 | 0.00 | 0.06 | 0.00 | 85 | 1017.2 |
| 20260504000002 | 59 | 282 | 1.7 | 8.7 | 0.00 | 0.06 | 0.00 | 85 | 1012.7 |
| 20260503235604 | 59 | 224 | 1.7 | 9.6 | 0.00 | 0.06 | 0.00 | 85 | 1012.8 |
| 20260503235501 | 59 | 266 | 4.3 | 9.6 | 0.00 | 0.06 | 0.00 | 85 | 1017.3 |
| 20260503235103 | 59 | 253 | 5.2 | 9.6 | 0.00 | 0.06 | 0.00 | 85 | 1012.8 |
| 20260503235003 | 59 | 222 | 5.2 | 9.6 | 0.00 | 0.06 | 0.00 | 85 | 1017.4 |
| 20260503234600 | 59 | 249 | 3.5 | 10.4 | 0.00 | 0.06 | 0.00 | 85 | 1012.8 |
| 20260503234501 | 59 | 289 | 4.3 | 10.4 | 0.00 | 0.06 | 0.00 | 86 | 1017.3 |
| 20260503234100 | 59 | 285 | 3.5 | 10.4 | 0.00 | 0.06 | 0.00 | 85 | 1012.6 |
| 20260503233601 | 60 | 305 | 3.5 | 13.0 | 0.00 | 0.06 | 0.00 | 85 | 1012.5 |
| 20260503233101 | 60 | 253 | 4.3 | 13.0 | 0.00 | 0.06 | 0.00 | 84 | 1012.8 |
| 20260503233006 | 60 | 241 | 6.1 | 13.0 | 0.00 | 0.06 | 0.00 | 84 | 1017.3 |
| 20260503232600 | 60 | 288 | 6.1 | 13.0 | 0.00 | 0.06 | 0.00 | 85 | 1012.8 |
| 20260503232501 | 60 | 248 | 6.1 | 13.0 | 0.00 | 0.06 | 0.00 | 85 | 1017.4 |
| 20260503232101 | 60 | 300 | 4.3 | 13.9 | 0.00 | 0.06 | 0.00 | 86 | 1012.7 |
| 20260503232001 | 60 | 302 | 6.1 | 13.9 | 0.00 | 0.06 | 0.00 | 86 | 1017.2 |
| 20260503231602 | 59 | 265 | 6.1 | 17.4 | 0.00 | 0.06 | 0.00 | 87 | 1012.8 |
| 20260503231501 | 59 | 274 | 7.0 | 17.4 | 0.00 | 0.06 | 0.00 | 88 | 1017.3 |
| 20260503231104 | 59 | 217 | 7.0 | 17.4 | 0.00 | 0.06 | 0.00 | 88 | 1012.8 |
| 20260503231003 | 59 | 262 | 6.1 | 17.4 | 0.00 | 0.06 | 0.00 | 88 | 1017.4 |
| 20260503230601 | 59 | 236 | 4.3 | 10.4 | 0.00 | 0.06 | 0.00 | 89 | 1012.8 |
| 20260503230112 | 60 | 273 | 4.3 | 8.7 | 0.00 | 0.06 | 0.00 | 90 | 1012.6 |
| 20260503230005 | 60 | 259 | 2.6 | 7.8 | 0.00 | 0.06 | 0.00 | 90 | 1017.1 |
| 20260503230003 | 60 | 259 | 3.5 | 7.8 | 0.00 | 0.06 | 0.00 | 90 | 1012.6 |
| 20260503225600 | 60 | 258 | 2.6 | 7.0 | 0.00 | 0.06 | 0.00 | 90 | 1012.6 |
| 20260503225501 | 60 | 234 | 1.7 | 7.0 | 0.00 | 0.06 | 0.00 | 90 | 1017.1 |
| 20260503225100 | 60 | 289 | 1.7 | 5.2 | 0.00 | 0.06 | 0.00 | 91 | 1012.5 |
| 20260503225003 | 60 | 278 | 1.7 | 5.2 | 0.00 | 0.06 | 0.00 | 90 | 1016.9 |
| 20260503224600 | 60 | 273 | 1.7 | 3.5 | 0.00 | 0.06 | 0.00 | 91 | 1012.3 |
| 20260503224501 | 60 | 264 | 1.7 | 3.5 | 0.00 | 0.06 | 0.00 | 91 | 1016.8 |
| 20260503224100 | 60 | 284 | 0.9 | 2.6 | 0.00 | 0.06 | 0.00 | 91 | 1012.2 |
| 20260503223601 | 60 | 292 | 0.0 | 1.7 | 0.00 | 0.06 | 0.00 | 90 | 1012.1 |
| 20260503223501 | 60 | 318 | 0.0 | 0.9 | 0.00 | 0.06 | 0.00 | 90 | 1016.6 |
| 20260503223101 | 60 | 73 | 0.0 | 0.0 | 0.00 | 0.06 | 0.00 | 91 | 1012.0 |
| 20260503223003 | 60 | 73 | 0.0 | 0.0 | 0.00 | 0.06 | 0.00 | 91 | 1016.5 |
| 20260503222600 | 60 | 73 | 0.0 | 0.9 | 0.00 | 0.06 | 0.00 | 91 | 1012.0 |
| 20260503222501 | 60 | 73 | 0.0 | 0.9 | 0.00 | 0.06 | 0.00 | 91 | 1016.5 |
| 20260503222101 | 60 | 74 | 0.0 | 0.9 | 0.00 | 0.06 | 0.00 | 91 | 1012.1 |
| 20260503222003 | 60 | 74 | 0.0 | 0.9 | 0.00 | 0.06 | 0.00 | 90 | 1016.6 |
| 20260503221601 | 60 | 92 | 0.0 | 0.9 | 0.00 | 0.06 | 0.00 | 91 | 1012.2 |
| 20260503221501 | 60 | 93 | 0.0 | 0.9 | 0.00 | 0.06 | 0.00 | 91 | 1016.7 |
| 20260503221103 | 60 | 93 | 0.0 | 0.9 | 0.00 | 0.06 | 0.00 | 91 | 1012.2 |
| 20260503221002 | 60 | 93 | 0.0 | 0.9 | 0.00 | 0.06 | 0.00 | 91 | 1016.7 |
| 20260503220600 | 60 | 139 | 0.0 | 0.9 | 0.00 | 0.06 | 0.00 | 90 | 1012.2 |
| 20260503220501 | 60 | 137 | 0.0 | 0.9 | 0.00 | 0.06 | 0.00 | 90 | 1016.7 |
| 20260503220103 | 60 | 108 | 0.0 | 0.0 | 0.00 | 0.06 | 0.00 | 91 | 1012.2 |
| 20260503220004 | 60 | 108 | 0.0 | 0.0 | 0.00 | 0.06 | 0.00 | 91 | 1012.2 |
| 20260503215600 | 60 | 108 | 0.0 | 0.9 | 0.00 | 0.06 | 0.06 | 91 | 1012.2 |
| 20260503215501 | 60 | 109 | 0.0 | 0.9 | 0.00 | 0.06 | 0.06 | 91 | 1016.7 |